{"data":{"norad_id":68341,"intl_designator":"2026-059W","name":"STARLINK-37181","alt_names":[],"object_type":"PAYLOAD","status":"ACTIVE","operator":null,"country":"US","launch_date":"2026-03-22","launch_site_code":"AFETR","launch_vehicle":null,"mission":null,"orbit_class":"UNKNOWN","rcs_meters":null,"size_class":null,"mass_kg":null,"dimensions":null,"purposes":["comms"],"wikipedia_slug":null,"has_3d_model":false,"image_url":null,"decayed_at":null,"tle_current":{"epoch":"2026-05-24T14:20:06.224928Z","epoch_age_seconds":109903,"freshness":"FRESH","line1":"1 68341U 26059W   26144.59729427  .00027348  00000+0  81677-3 0  9991","line2":"2 68341  53.1588 351.6695 0002954  93.0619 267.0721 15.34429703  9852","mean_motion":15.34429703,"eccentricity":0.0002954,"inclination_deg":53.1588,"raan_deg":351.6695,"arg_perigee_deg":93.0619,"mean_anomaly_deg":267.0721,"bstar":0.00081677,"rev_number":985,"period_min":93.845941406414,"perigee_km":460.59419992721,"apogee_km":464.63571618403,"semimajor_km":6840.7519580556,"source":"CELESTRAK","updated_at":"2026-05-25T13:38:21.925848Z"}}}